OBJECT B

Last updated on Tue Jun 21 2022 00:02:04 GMT+0000 (Coordinated Universal Time)

1 52798U 22060B 22171.74688130 .09095063 82013-5 12520-3 0 9995 2 52798 41.4581 189.3589 0022351 256.4962 104.4057 16.46927296 2539

Satellite not in orbit